Location: *
(40.7873°S, 98.7174°E)
Time: 10:43:43
(UTC+00:00)

Kosmos-1816 - Pass Details

Date: 19 June 2024
Orbit: 959 x 1007 km, 82.9° (Epoch: 23 July)

Event Time Altitude Azimuth Distance (km) Brightness Sun altitude
Rises 11:17:19 0° 175° (S) 3,768 8.8 -13.4°
Reaches altitude 10° 11:20:32 10° 160° (SSE) 2,806 8.0 -14.0°
Maximum altitude 11:25:26 22° 111° (ESE) 2,027 7.0 -14.8°
Drops below altitude 10° 11:30:16 10° 61° (ENE) 2,761 8.0 -15.7°
Sets 11:33:23 0° 46° (NE) 3,692 8.7 -16.3°
